Simultaneous Nadir Overpasses (SNOs) Predictions

Prediction of SNOs between AQUA and METOP-B Satellite Orbit:

Table of predicted SNOs for the next 14.0 days since TLE Epoch: 2/6/2015
Index Date (AQUA) Time (AQUA) Lat,Lon (AQUA) SZA (AQUA ) Date (METOP-B) Time (METOP-B) Lat,Lon (METOP-B) SZA (METOP-B ) Distance(km) Time Diff (sec)
1 02/06/2015 12:07:41 73.71, -7.37 89.43 02/06/2015 12:07:07 73.71, -7.41 89.44 1.11 34
2 02/06/2015 12:57:08 -73.78, 160.10 90.50 02/06/2015 12:57:47 -73.77, 160.07 90.52 1.79 39
3 02/09/2015 07:41:58 73.73, 59.02 88.57 02/09/2015 07:41:29 73.71, 59.01 88.56 1.85 29
4 02/09/2015 08:31:25 -73.80,-133.50 91.37 02/09/2015 08:32:09 -73.78,-133.51 91.40 2.85 44
5 02/12/2015 03:16:14 73.75, 125.42 87.67 02/12/2015 03:15:50 73.76, 125.53 87.69 3.48 24
6 02/12/2015 04:05:41 -73.82, -67.09 92.26 02/12/2015 04:06:30 -73.82, -66.98 92.27 3.36 49
7 02/14/2015 22:00:51 -73.26, 25.26 93.79 02/14/2015 21:59:42 -73.19, 23.31 93.76 63.09 69
8 02/14/2015 22:50:28 73.76,-168.17 86.75 02/14/2015 22:50:11 73.74,-168.09 86.73 3.34 17
9 02/14/2015 23:39:55 -73.83, -0.68 93.20 02/14/2015 23:40:51 -73.81, -0.59 93.23 3.27 56
10 02/17/2015 17:35:10 -73.53, 91.14 94.47 02/17/2015 17:33:58 -73.47, 90.36 94.49 25.77 72
11 02/17/2015 18:24:41 73.73,-101.64 85.73 02/17/2015 18:24:33 73.72,-101.72 85.73 2.73 8
12 02/17/2015 19:14:08 -73.79, 65.86 94.22 02/17/2015 19:15:13 -73.79, 65.78 94.22 2.61 65




NCC Satellite Simultaneous Nadir Overpasses (SNOs) Prediction Service
